Change the Weather History Date:

Thursday, May 9, 2013

  Actual Average Record
Temperature  
Mean Temperature 61 °F 61 °F  
Max Temperature 75 °F 76 °F 96 °F (1963)
Min Temperature 46 °F 46 °F 32 °F (1965)
Degree Days  
Heating Degree Days 4 5  
Month to date heating degree days 101 54  
Since 1 July heating degree days 4381 4656  
Cooling Degree Days 0 1  
Month to date cooling degree days 0 9  
Year to date cooling degree days 11 15  
Growing Degree Days 9 (Base 50)    
Moisture  
Dew Point 41 °F    
Average Humidity 56    
Maximum Humidity 83    
Minimum Humidity 28    
Precipitation  
Precipitation 0.35 in 0.06 in 1.28 in (1994)
Month to date precipitation 0.40 0.53  
Year to date precipitation 1.26 3.70  
Snow  
Snow 0.00 in 0.00 in 0.00 in ()
Month to date snowfall T 0.1  
Since 1 July snowfall 21.6 19.0  
Snow Depth 0.00 in    
Sea Level Pressure  
Sea Level Pressure 29.98 in    
Wind  
Wind Speed 13 mph (NNE)    
Max Wind Speed 28 mph    
Max Gust Speed 35 mph    
Visibility 9 miles    
Events Rain , Thunderstorm    
T = Trace of Precipitation, MM = Missing Value Source: NWS Daily Summary

Daily Weather History Graph

Daily Weather History Graph

Search for Another Location

Airport or City:

Trip Planner

Search our weather history database for the weather conditions in past years. The results will help you decide how hot, cold, wet, or windy it might be!

Date:

Astronomy

May. 09, 2013 Rise Set
Actual Time 6:49 AM CDT 8:44 PM CDT
Civil Twilight 6:21 AM CDT 9:12 PM CDT
Nautical Twilight 5:47 AM CDT 9:46 PM CDT
Astronomical Twilight 5:10 AM CDT 10:23 PM CDT
Moon 6:34 AM CDT (5/9) 8:41 PM CDT (5/9)
Length of Visible Light 14h 51m
Length of Day
13h 55m
Waning Crescent, 0% of the Moon is Illuminated
May 9
Waning Crescent
May 9
New
May 17
First Quarter
May 24
Full
May 31
Last Quarter

Hourly Weather History & Observations

Time (CDT) Temp. Windchill Dew Point Humidity Pressure Visibility Wind Dir Wind Speed Gust Speed Precip Events Conditions
12:53 AM 52.0 °F - 39.9 °F 63% 29.89 in 10.0 mi NNE 11.5 mph - N/A   Clear
1:53 AM 50.0 °F - 39.9 °F 68% 29.88 in 10.0 mi NNE 13.8 mph - N/A   Clear
2:53 AM 48.9 °F - 39.9 °F 71% 29.86 in 10.0 mi North 11.5 mph - N/A   Clear
3:53 AM 46.9 °F - 39.0 °F 74% 29.88 in 10.0 mi NNW 10.4 mph - N/A   Clear
4:53 AM 46.9 °F - 39.9 °F 77% 29.88 in 10.0 mi NNW 10.4 mph - N/A   Clear
5:53 AM 48.0 °F - 39.9 °F 74% 29.88 in 10.0 mi North 11.5 mph - N/A   Clear
6:53 AM 46.0 °F 41.0 °F 39.0 °F 76% 29.91 in 10.0 mi NNW 10.4 mph - N/A   Clear
7:53 AM 48.0 °F - 39.0 °F 71% 29.96 in 10.0 mi NNW 11.5 mph - N/A   Clear
8:53 AM 55.0 °F - 41.0 °F 59% 29.95 in 10.0 mi North 19.6 mph - N/A   Clear
9:53 AM 59.0 °F - 42.1 °F 53% 29.98 in 10.0 mi North 21.9 mph 26.5 mph N/A   Clear
10:53 AM 63.0 °F - 42.1 °F 46% 29.99 in 10.0 mi NNE 20.7 mph 27.6 mph N/A   Clear
11:53 AM 66.0 °F - 42.1 °F 42% 29.99 in 10.0 mi NNE 12.7 mph 23.0 mph N/A   Clear
12:53 PM 68.0 °F - 42.1 °F 39% 29.96 in 10.0 mi North 17.3 mph 20.7 mph N/A   Partly Cloudy
1:53 PM 71.1 °F - 37.9 °F 30% 29.95 in 10.0 mi NNE 15.0 mph - N/A   Partly Cloudy
2:53 PM 71.1 °F - 37.9 °F 30% 29.93 in 10.0 mi North 13.8 mph 20.7 mph N/A   Partly Cloudy
3:16 PM 71.6 °F - 37.4 °F 29% 30.03 in 10.0 mi NNE 12.7 mph - N/A   Partly Cloudy
3:53 PM 72.0 °F - 37.0 °F 28% 29.91 in 10.0 mi NE 9.2 mph 18.4 mph N/A   Scattered Clouds
4:53 PM 72.0 °F - 37.0 °F 28% 29.90 in 10.0 mi ENE 11.5 mph - N/A   Overcast
5:32 PM 71.6 °F - 35.6 °F 27% 30.00 in 10.0 mi NNE 10.4 mph - N/A Thunderstorm Mostly Cloudy
5:46 PM 71.6 °F - 35.6 °F 27% 30.01 in 10.0 mi NNE 9.2 mph - N/A   Mostly Cloudy
5:53 PM 70.0 °F - 36.0 °F 29% 29.91 in 10.0 mi ENE 12.7 mph - N/A   Overcast
6:36 PM 62.6 °F - 42.8 °F 48% 30.05 in 10.0 mi Calm Calm - 0.00 in Rain , Thunderstorm Light Rain
6:48 PM 55.4 °F - 42.8 °F 63% 30.08 in 1.5 mi North - - 0.13 in Rain , Thunderstorm Heavy Thunderstorms and Rain
6:53 PM 53.6 °F - 44.6 °F 72% 30.08 in 0.8 mi North - - N/A Rain , Thunderstorm Heavy Thunderstorms and Rain
7:06 PM 53.6 °F - 46.4 °F 77% 30.09 in 2.5 mi North - - 0.06 in Rain , Thunderstorm Thunderstorms and Rain
7:13 PM 53.6 °F - 46.4 °F 77% 30.10 in 5.0 mi North - - 0.06 in Rain , Thunderstorm Light Thunderstorms and Rain
7:53 PM 53.1 °F - 46.9 °F 80% 30.09 in 3.0 mi North - - 0.09 in Rain Rain
8:53 PM 51.8 °F - 46.4 °F 82% 30.13 in 10.0 mi North 13.8 mph - N/A Rain Light Rain
9:53 PM 53.1 °F - 46.0 °F 77% 30.03 in 10.0 mi NNE 15.0 mph - 0.00 in   Scattered Clouds
10:53 PM 53.1 °F - 46.9 °F 80% 30.06 in 10.0 mi NNW 8.1 mph - N/A   Scattered Clouds
11:53 PM 51.8 °F - 46.4 °F 82% 30.15 in 10.0 mi North 8.1 mph - N/A   Clear